Probability
0 0 0 0 0 0 0 0 0 0 0 0 0 0 0 0 1 2 4 12 17 15 10 8 6 5 6 7 8 9 7 7 7 7 9 9 8 9 11 11 9 10 11
0 0 0 0 0 0 0 0 0 0 0 0 0 0 0 0 0 1 2 8 14 16 13 10 7 7 7 7 8 9 9 10 11 11 11 11 10 11 12 11 8 8 8
0 0 0 0 0 0 0 0 0 0 0 0 0 0 0 0 0 0 0 3 7 10 11 11 10 9 7 5 5 6 7 9 11 12 12 11 10 11 13 11 7 5 5
0 0 0 0 0 0 0 0 0 0 0 0 0 0 0 0 0 0 0 0 1 3 6 10 11 10 6 3 2 1 3 4 6 8 9 10 10 11 12 10 6 4 4
0 0 0 0 0 0 0 0 0 0 0 0 0 0 0 0 0 0 0 0 0 1 3 6 7 6 4 2 1 1 1 1 3 5 7 8 9 9 9 6 4 4 4
1 1 1 1 0 0 0 0 0 0 0 0 0 0 0 0 0 0 0 0 0 0 1 1 2 2 1 1 1 0 0 0 2 5 6 6 6 6 5 3 2 3 3
6 6 5 3 2 1 1 0 0 0 0 0 0 0 0 0 0 0 0 0 0 0 0 0 0 0 0 0 0 0 0 0 1 2 3 3 3 3 2 1 1 2 2
9 9 7 5 3 2 1 0 0 0 0 0 0 0 0 0 0 0 0 0 0 0 0 0 0 0 0 0 0 0 0 0 0 0 1 1 1 1 1 0 0 1 1
7 7 6 4 2 1 1 0 0 0 0 0 0 0 0 0 0 0 0 0 0 0 0 0 0 0 0 0 0 0 0 0 0 0 0 0 0 0 0 0 0 0 0
4 4 4 2 0 0 0 0 0 0 0 0 0 0 0 0 0 0 0 0 0 0 0 0 0 0 0 0 0 0 0 0 0 0 0 0 0 0 0 0 0 0 0
3 3 3 1 0 0 0 0 0 0 0 0 0 0 0 0 0 0 0 0 0 0 0 0 0 0 0 0 0 0 0 0 0 0 0 0 0 0 0 0 0 0 0
1 1 1 0 0 0 0 0 0 0 0 0 0 0 0 0 0 0 0 0 0 0 0 0 0 0 0 0 0 0 0 0 0 0 0 0 0 0 0 0 0 0 0
0 0 0 0 0 0 0 0 0 0 0 0 0 0 0 0 0 0 0 0 0 0 0 0 0 0 0 0 0 0 0 0 0 0 0 0 0 0 0 0 0 0 0
0 0 0 0 0 0 0 0 0 0 0 0 0 0 0 0 0 0 0 0 0 0 0 0 0 0 0 0 0 0 0 0 0 0 0 0 0 0 0 0 0 0 0
0 0 0 0 0 0 0 0 0 0 0 0 0 0 0 0 0 0 0 0 0 0 0 0 0 0 0 0 0 0 0 0 0 0 0 0 0 0 0 0 0 0 0
0 0 0 0 0 0 0 0 0 0 0 0 0 0 0 0 0 0 0 0 0 0 0 0 0 0 0 0 0 0 0 0 0 0 0 0 0 0 0 0 0 0 0
0 0 0 0 0 0 0 0 0 0 0 0 0 0 0 0 0 0 0 0 0 0 0 0 0 0 0 0 0 0 0 0 0 0 0 0 0 0 0 0 0 0 0
0 0 0 0 0 0 0 0 0 0 0 0 0 0 0 0 0 0 0 0 0 0 0 0 0 0 0 0 0 0 0 0 0 0 0 0 0 0 0 0 0 0 0
0 0 0 0 0 0 0 0 0 0 0 0 0 0 0 0 0 0 0 0 0 0 0 0 0 0 0 0 0 0 0 0 0 0 0 0 0 0 0 0 0 0 0
0 0 0 0 0 0 0 0 0 0 0 0 0 0 0 0 0 0 0 0 0 0 0 0 0 0 0 0 0 0 0 0 0 0 0 0 0 0 0 0 0 0 0
0 0 0 0 0 0 0 0 0 0 0 0 0 0 0 0 0 0 0 0 0 0 0 0 0 0 0 0 0 0 0 0 0 0 0 0 0 0 0 0 0 0 0
0 0 0 0 0 0 0 0 0 0 0 0 0 0 0 0 0 0 0 0 0 0 0 0 0 0 0 0 0 0 0 0 0 0 0 0 0 0 0 0 0 0 0
0 0 0 0 0 0 0 0 0 0 0 0 0 0 0 0 0 0 0 0 0 0 0 0 0 0 0 0 0 0 0 0 0 0 0 0 0 0 0 0 0 0 0
0 0 0 0 0 0 0 0 0 0 0 0 0 0 0 0 0 0 0 0 0 0 0 0 0 0 0 0 0 0 0 0 0 0 0 0 0 0 0 0 0 0 0
0 0 0 0 0 0 0 0 0 0 0 0 0 0 0 0 0 0 0 0 0 0 0 0 0 0 0 0 0 0 0 0 0 0 0 0 0 0 0 0 0 0 0
0 0 0 0 0 0 0 0 0 0 0 0 0 0 0 0 0 0 0 0 0 0 0 0 0 0 0 0 0 0 0 0 0 0 0 0 0 0 0 0 0 0 0
Wind_Speed
4 3 2 2 2 2 1 1 1 0 0 1 0 1 1 2 2 2 1 5 6 5 6 7 7 7 6 6 5 4 4 4 3 3 3 2 2 1 1 2 2 2 3
4 4 3 3 2 2 2 2 2 1 1 1 2 2 2 2 2 1 1 2 5 5 5 6 6 6 6 5 5 4 4 3 3 3 3 2 2 2 1 1 0 1 1
5 4 4 3 3 3 3 3 3 2 2 2 3 4 3 3 3 3 2 2 1 2 3 4 4 4 4 5 4 4 4 4 3 3 3 3 4 4 3 3 3 3 3
6 5 4 3 3 3 3 3 3 3 2 2 3 3 3 3 4 3 3 3 2 2 1 0 1 3 4 4 4 4 4 4 3 3 3 3 3 3 4 3 3 3 3
6 4 3 3 4 3 3 3 2 2 2 2 3 3 3 3 3 3 4 4 3 3 2 2 2 2 3 3 4 4 4 4 4 4 3 3 3 3 3 3 2 2 3
6 5 4 4 4 4 3 3 4 3 2 2 3 3 3 3 3 4 3 3 3 3 3 3 3 3 3 4 4 5 5 6 5 5 5 5 4 3 3 2 1 1 2
5 5 4 4 4 4 4 5 4 4 3 1 2 2 3 4 4 4 3 3 4 4 4 3 3 2 2 5 6 6 8 8 8 8 8 7 6 5 5 4 3 2 3
4 4 5 4 4 4 5 4 3 3 2 2 2 2 1 1 2 3 3 3 3 3 4 4 3 3 3 2 5 8 9 10 11 11 11 10 8 8 7 7 6 5 5
5 4 4 4 4 4 4 3 3 4 3 2 2 2 3 3 1 1 3 3 4 3 3 3 5 4 4 3 3 6 9 9 10 12 11 10 10 10 10 9 9 9 9
6 6 5 5 5 4 4 4 3 3 4 2 2 3 3 2 2 1 1 2 3 4 4 4 4 5 5 4 4 7 8 9 9 9 10 10 10 11 11 12 12 13 13
7 7 7 6 6 5 6 6 5 5 3 3 2 2 3 3 3 2 1 2 2 3 3 4 4 4 5 5 4 7 9 9 9 9 9 9 10 11 12 13 14 15 16
6 8 8 8 7 7 7 7 7 8 7 6 5 4 2 2 2 2 1 1 1 2 2 3 3 4 4 5 7 11 11 11 11 10 10 10 11 12 14 15 16 17 18
6 8 8 8 8 8 8 8 9 8 7 7 6 5 4 3 2 2 2 1 1 2 2 1 2 3 4 4 5 11 11 12 13 13 13 13 14 15 16 17 19 20 21
7 8 9 9 9 9 9 8 7 7 7 7 7 5 4 3 2 1 1 1 0 1 2 2 2 2 3 4 6 10 7 13 14 14 14 15 15 16 18 19 20 21 21
7 9 10 10 9 9 9 8 7 7 6 6 5 5 4 3 2 2 1 1 1 1 2 3 2 3 4 5 8 7 7 12 15 16 15 16 16 17 18 19 20 21 21
9 9 10 10 9 9 9 8 7 6 7 5 3 4 3 2 2 1 1 0 1 2 3 2 3 5 6 7 10 8 9 15 15 16 16 16 17 18 19 20 20 21 22
9 9 9 10 9 9 8 8 7 7 7 6 5 4 3 2 1 1 0 0 1 2 3 4 3 4 6 8 9 8 8 8 8 15 17 17 18 18 19 19 20 20 21
9 9 9 9 9 8 8 7 7 7 6 5 5 4 4 2 2 1 1 2 2 3 4 5 5 5 7 8 9 10 9 8 8 13 17 18 18 18 17 17 18 18 17
9 8 8 8 7 7 7 6 6 6 5 5 4 4 4 3 3 2 2 2 2 3 3 4 6 5 5 6 8 8 9 8 9 10 14 15 16 17 17 17 17 16 15
7 7 7 6 6 6 6 6 5 5 5 5 4 4 4 4 4 4 3 3 3 3 4 5 6 6 6 7 6 7 8 8 8 9 11 11 13 16 17 17 17 17 15
6 5 5 5 5 4 4 5 4 5 5 6 6 6 6 6 6 4 3 3 3 4 5 6 7 7 7 7 7 5 8 9 10 7 7 8 9 9 10 12 14 15 15
5 4 4 4 4 4 6 7 5 4 5 5 6 7 7 6 8 9 9 9 8 7 8 7 7 8 10 9 8 7 8 8 6 4 5 9 8 9 8 8 11 15 15
3 3 3 3 3 4 6 7 8 4 5 5 6 6 6 6 7 6 9 12 12 13 12 8 9 10 10 9 8 9 8 8 9 8 6 8 8 9 8 8 13 15 14
2 2 2 3 3 4 7 6 7 5 5 6 6 6 6 7 7 8 9 10 10 10 10 7 8 10 10 10 8 8 8 8 8 7 5 6 7 8 9 8 10 13 13
2 2 2 3 3 4 7 7 6 4 5 7 7 7 7 8 10 11 9 9 10 9 8 9 10 11 12 12 9 5 5 6 7 7 4 4 5 7 8 7 7 10 12
2 2 3 3 3 3 6 7 7 4 5 7 7 7 9 9 11 12 8 7 9 9 9 9 8 8 7 7 6 4 4 5 6 5 3 3 4 5 5 4 6 7 7
Wind_Direction
184 190 197 194 196 179 174 187 195 208 343 0 108 147 153 155 155 157 173 178 174 183 190 187 186 187 186 182 179 175 176 178 173 167 168 175 189 209 232 249 257 260 260
184 189 197 198 198 185 177 173 158 137 89 79 75 89 102 108 115 120 110 156 164 172 183 184 187 188 186 180 172 166 160 159 153 142 132 129 126 116 103 84 25 344 335
187 189 192 197 193 169 154 138 121 102 96 82 71 66 68 70 84 83 75 65 96 151 169 179 186 192 194 192 181 167 157 151 146 136 126 119 110 101 95 85 72 57 39
187 185 188 193 172 152 147 137 123 98 84 83 73 55 57 60 59 59 58 51 42 42 37 111 162 192 204 205 199 190 182 176 164 154 146 135 120 111 102 92 79 57 35
181 174 176 171 152 141 138 134 105 104 105 96 84 60 45 48 45 47 42 37 33 27 20 359 337 270 239 232 225 218 211 202 193 188 184 182 165 143 125 111 87 54 20
164 158 156 152 143 134 124 115 105 82 89 99 87 66 44 37 39 41 33 32 27 24 21 10 0 342 320 293 275 259 247 239 229 224 222 220 207 186 173 172 178 354 343
144 143 140 134 138 140 137 132 115 100 76 61 90 65 36 38 43 37 33 38 27 21 25 19 5 357 343 325 314 292 278 268 257 248 244 242 232 219 218 222 231 258 289
118 129 135 140 139 129 126 128 125 116 84 41 112 127 125 24 26 31 30 40 30 28 29 23 13 4 352 340 321 305 292 286 275 264 257 253 240 232 234 237 244 256 271
70 83 108 113 116 119 126 125 128 131 132 80 48 141 162 191 139 27 30 38 31 37 28 22 26 13 0 349 331 323 315 310 295 284 278 270 256 246 244 246 253 262 270
68 72 77 85 87 88 97 99 89 102 123 126 73 47 55 99 138 131 35 22 33 41 32 31 27 24 17 4 355 350 345 339 323 309 299 289 278 267 259 260 263 266 271
61 67 70 76 77 76 77 75 75 74 79 100 101 88 68 53 54 112 120 2 16 25 28 30 31 27 21 15 6 10 6 360 351 337 322 310 298 286 276 271 271 273 275
60 61 69 70 72 71 71 71 69 69 69 74 71 68 79 83 70 79 99 42 348 346 6 21 27 22 18 11 3 2 358 354 345 337 326 313 302 293 287 283 280 280 280
67 59 67 70 70 73 73 73 73 69 69 75 75 70 65 62 72 88 101 82 335 322 330 344 1 5 10 358 344 344 342 339 333 324 315 306 298 292 288 286 284 283 282
76 71 70 69 68 71 74 72 73 72 70 72 73 73 70 53 52 73 115 133 315 311 306 300 311 320 340 332 320 326 321 321 317 310 304 298 294 290 286 284 283 282 281
79 73 72 69 65 66 70 73 71 70 72 69 72 72 71 55 49 48 77 143 175 259 284 296 297 302 317 312 308 309 306 306 304 301 299 296 291 288 286 284 282 280 279
72 73 72 71 68 63 64 68 67 62 68 59 60 64 60 57 53 45 53 119 193 209 254 269 271 288 302 305 305 307 299 300 298 297 294 292 289 288 285 282 281 280 279
72 72 73 72 67 61 58 61 58 54 56 46 37 43 38 32 39 21 358 236 217 206 248 275 272 285 291 295 303 301 294 290 286 289 292 291 289 287 285 283 283 282 281
72 72 73 71 68 62 55 55 52 48 46 37 23 21 13 4 350 322 280 260 247 229 239 277 289 292 287 294 297 299 299 297 293 291 291 291 290 289 287 286 286 284 281
74 71 73 72 68 62 56 51 48 42 34 24 11 3 348 343 329 312 295 280 272 263 241 265 287 287 287 292 299 297 298 294 294 293 293 291 291 293 293 292 289 284 277
76 72 70 68 64 60 54 45 40 34 22 11 1 350 336 320 303 303 300 295 288 286 280 280 289 294 292 293 290 299 307 306 302 299 292 292 292 294 293 292 290 287 281
72 69 68 60 51 50 46 44 33 26 14 3 355 348 333 329 337 330 321 307 298 294 296 295 295 297 298 301 300 297 301 305 299 290 294 298 297 293 292 290 288 287 285
57 56 52 46 36 33 29 35 36 20 6 357 346 339 329 336 341 340 332 322 311 301 296 290 290 290 293 293 293 294 299 302 302 294 294 300 298 294 293 289 284 285 284
44 39 28 25 13 359 11 16 21 17 355 344 335 332 328 325 331 322 319 317 309 300 290 279 277 280 285 289 294 297 298 298 294 297 297 295 300 298 300 295 292 290 288
25 7 356 353 347 345 357 1 4 3 341 332 326 318 313 312 313 321 317 311 306 301 294 282 266 274 279 286 284 284 290 291 287 285 277 286 299 302 305 303 294 290 291
1 346 343 353 350 342 355 1 4 344 332 327 321 317 313 309 309 318 316 308 307 307 305 293 283 283 284 286 286 285 292 300 307 310 300 273 291 304 302 298 299 298 299
358 356 12 16 11 356 359 5 5 342 331 327 321 317 315 312 310 314 310 301 303 308 316 320 318 317 311 307 306 282 281 294 303 302 298 291 293 307 301 293 305 311 312